SHILOH Weather Reports


time (UTC)temp
C
wind
direction
speed
KPH
gust
KPH
rain 1hr
cm
rain 24hr
cm
rain mn
cm
humidity
%
barometer
mb
20260510051554 8 27 0.0 0.0 0.00 0.00 0.00 32 1009.4
20260510050050 8 27 0.0 0.0 0.00 0.00 0.00 32 1009.7
20260510044547 8 27 0.0 0.0 0.00 0.00 0.00 32 1009.6
20260510043044 8 27 0.0 0.0 0.00 0.00 0.00 36 1009.6
20260510041542 8 27 0.0 0.0 0.00 0.00 0.00 40 1009.6
20260510040039 9 27 0.0 0.0 0.00 0.00 0.00 39 1009.7
20260510034545 9 27 0.0 0.0 0.00 0.00 0.00 45 1009.7
20260510033041 10 27 0.0 0.0 0.00 0.00 0.00 42 1009.6
20260510031533 10 27 0.0 0.0 0.00 0.00 0.00 43 1009.7
20260510030030 10 27 0.0 1.6 0.00 0.00 0.00 47 1009.8
20260510024529 10 27 0.0 0.0 0.00 0.00 0.00 52 1009.5
20260510023031 11 27 0.0 0.0 0.00 0.00 0.00 54 1009.3
20260510021530 11 27 0.0 0.0 0.00 0.00 0.00 60 1009.2
20260510020024 11 27 0.0 0.0 0.00 0.00 0.00 68 1009.2
20260510014524 11 27 0.0 0.0 0.00 0.00 0.00 71 1009.0
20260510013022 12 27 0.0 1.6 0.00 0.00 0.00 69 1008.9
20260510011522 12 27 0.0 0.0 0.00 0.00 0.00 76 1008.7
20260510010022 13 27 0.0 0.0 0.00 0.00 0.00 79 1008.5
20260510004522 13 27 0.0 0.0 0.00 0.00 0.00 80 1008.4
20260510003021 14 27 0.0 0.0 0.00 0.00 0.00 80 1008.3
20260510001521 15 27 0.0 0.0 0.00 0.00 0.00 78 1008.0
20260510000021 16 27 0.0 0.0 0.00 0.00 0.00 76 1007.9
20260509234535 16 27 0.0 1.6 0.00 0.00 0.00 73 1007.8
20260509233019 17 238 0.0 1.6 0.00 0.00 0.00 71 1007.8
20260509231519 17 226 0.0 3.2 0.00 0.00 0.00 68 1007.7
20260509230018 18 85 0.0 3.2 0.00 0.00 0.00 66 1007.7
20260509224528 18 89 0.0 6.4 0.00 0.00 0.00 68 1007.9
20260509223016 18 275 0.0 0.0 0.00 0.00 0.00 68 1008.0
20260509221515 18 276 0.0 3.2 0.00 0.00 0.00 64 1007.9
20260509220015 18 283 0.0 1.6 0.00 0.00 0.00 66 1008.0
20260509214513 17 104 0.0 3.2 0.00 0.00 0.00 65 1008.0
20260509213011 17 95 3.2 6.4 0.00 0.00 0.00 65 1008.1
20260509211510 18 201 0.0 3.2 0.00 0.00 0.00 66 1008.4
20260509210010 17 68 0.0 4.8 0.00 0.00 0.00 66 1008.5
20260509204510 17 19 0.0 3.2 0.00 0.00 0.00 68 1008.6
20260509203011 17 269 0.0 3.2 0.00 0.00 0.00 64 1008.3
20260509201509 18 270 0.0 3.2 0.00 0.00 0.00 64 1008.3
20260509200007 18 246 0.0 1.6 0.00 0.00 0.00 65 1008.5
20260509194505 18 260 1.6 3.2 0.00 0.00 0.00 64 1008.5
20260509193007 18 219 1.6 3.2 0.00 0.00 0.00 68 1008.7
20260509191601 17 288 0.0 6.4 0.00 0.00 0.00 69 1009.0
20260509190100 18 274 3.2 4.8 0.00 0.00 0.00 68 1009.0
20260509184556 17 238 0.0 4.8 0.00 0.00 0.00 74 1009.2
20260509183054 16 281 3.2 11.3 0.00 0.00 0.00 75 1009.5
20260509181607 16 212 1.6 6.4 0.00 0.00 0.00 77 1009.8
20260509180110 15 256 1.6 6.4 0.00 0.00 0.00 80 1010.0
20260509174545 15 278 1.6 6.4 0.00 0.00 0.00 81 1010.3
20260509173054 14 231 1.6 6.4 0.00 0.00 0.00 81 1010.0
20260509171551 14 283 0.0 3.2 0.00 0.00 0.00 81 1010.2
20260509170050 14 285 0.0 1.6 0.00 0.00 0.00 81 1010.2
20260509164543 14 253 0.0 4.8 0.00 0.00 0.00 81 1010.2
20260509163043 13 270 3.2 8.0 0.00 0.00 0.00 81 1010.5
20260509161550 14 297 0.0 9.7 0.00 0.00 0.00 81 1010.8
20260509160041 14 223 1.6 6.4 0.00 0.00 0.00 79 1010.6
20260509154541 13 200 0.0 6.4 0.00 0.00 0.00 63 1010.5
20260509153040 13 15 0.0 1.6 0.00 0.00 0.00 60 1010.2
20260509151539 13 277 0.0 0.0 0.00 0.00 0.00 72 1010.5
20260509150036 13 276 0.0 0.0 0.00 0.00 0.00 81 1010.9
20260509144536 13 276 0.0 0.0 0.00 0.00 0.00 80 1010.8
20260509143040 14 276 0.0 0.0 0.00 0.00 0.00 80 1011.0
20260509141542 14 276 0.0 0.0 0.00 0.00 0.00 77 1011.0
20260509140033 14 276 0.0 3.2 0.00 0.00 0.00 76 1010.7
20260509134533 14 60 0.0 4.8 0.00 0.00 0.00 73 1010.4
20260509133028 13 58 0.0 3.2 0.00 0.00 0.00 77 1010.5
20260509131529 13 204 0.0 1.6 0.00 0.00 0.00 80 1010.5
20260509130026 12 201 0.0 1.6 0.00 0.00 0.00 77 1010.1
20260509124524 12 203 0.0 1.6 0.00 0.00 0.00 81 1010.3
20260509123022 12 203 0.0 0.0 0.00 0.00 0.00 81 1010.3
20260509121522 12 203 0.0 1.6 0.00 0.00 0.00 81 1010.3
20260509120023 12 203 0.0 1.6 0.00 0.00 0.00 80 1010.2
20260509114517 11 195 0.0 1.6 0.00 0.00 0.00 76 1010.0
20260509113017 11 139 0.0 1.6 0.00 0.00 0.00 71 1009.7
20260509111516 11 201 0.0 0.0 0.00 0.00 0.00 70 1009.7
20260509110016 11 201 0.0 0.0 0.00 0.00 0.00 69 1009.8
20260509104515 11 165 0.0 0.0 0.00 0.00 0.00 69 1009.6
20260509103013 10 165 0.0 0.0 0.00 0.00 0.00 71 1009.6
20260509101523 10 165 0.0 0.0 0.00 0.00 0.00 72 1009.5
20260509100012 10 165 0.0 0.0 0.00 0.00 0.00 73 1009.4
20260509094510 10 165 0.0 0.0 0.00 0.00 0.00 73 1009.4
20260509093010 10 165 0.0 0.0 0.00 0.00 0.00 77 1009.6
20260509091508 10 165 0.0 0.0 0.00 0.00 0.00 78 1009.6
20260509090006 10 165 0.0 0.0 0.00 0.00 0.00 78 1009.7
20260509084506 10 165 0.0 0.0 0.00 0.00 0.00 76 1009.9
20260509083006 10 165 0.0 0.0 0.00 0.00 0.00 76 1009.9
20260509081508 10 165 0.0 0.0 0.00 0.00 0.00 77 1009.9
20260509080002 10 165 0.0 0.0 0.00 0.00 0.00 78 1010.2
20260509074502 10 165 0.0 0.0 0.00 0.00 0.00 79 1010.0
20260509073100 10 165 0.0 0.0 0.00 0.00 0.00 81 1009.9
20260509071601 10 165 0.0 0.0 0.00 0.00 0.00 81 1010.1
20260509070105 10 165 0.0 0.0 0.00 0.00 0.00 80 1010.1
20260509064601 10 165 0.0 0.0 0.00 0.00 0.00 81 1010.2
20260509063110 10 165 0.0 0.0 0.00 0.00 0.00 81 1010.2
20260509061614 11 165 0.0 0.0 0.00 0.00 0.00 80 1010.3
20260509060059 11 165 0.0 0.0 0.00 0.00 0.00 81 1010.0
20260509054550 11 165 0.0 0.0 0.00 0.00 0.00 81 1010.2
20260509053048 11 165 0.0 0.0 0.00 0.00 0.00 81 1010.4